Year,Month,Day,Hour,Minute,Value (Times are PST for windspeed in km/hr)
2017,04,08,00,00,19.00
2017,04,08,00,01,22.10
2017,04,08,00,02,23.60
2017,04,08,00,03,21.40
2017,04,08,00,04,22.50
2017,04,08,00,05,19.10
2017,04,08,00,06,15.90
2017,04,08,00,07,12.70
2017,04,08,00,08,15.50
2017,04,08,00,09,16.00
2017,04,08,00,10,17.90
2017,04,08,00,11,17.90
2017,04,08,00,12,20.40
2017,04,08,00,13,20.00
2017,04,08,00,14,21.20
2017,04,08,00,15,18.60
2017,04,08,00,16,19.80
2017,04,08,00,17,16.00
2017,04,08,00,18,16.80
2017,04,08,00,19,16.30
2017,04,08,00,20,19.90
2017,04,08,00,21,24.50
2017,04,08,00,22,22.00
2017,04,08,00,23,21.40
2017,04,08,00,24,20.80
2017,04,08,00,25,20.40
2017,04,08,00,26,21.40
2017,04,08,00,27,18.90
2017,04,08,00,28,16.90
2017,04,08,00,29,17.90
2017,04,08,00,30,19.20
2017,04,08,00,31,20.20
2017,04,08,00,32,18.30
2017,04,08,00,33,15.60
2017,04,08,00,34,17.90
2017,04,08,00,35,12.20
2017,04,08,00,36,15.60
2017,04,08,00,37,12.20
2017,04,08,00,38,9.40
2017,04,08,00,39,8.40
2017,04,08,00,40,9.70
2017,04,08,00,41,19.90
2017,04,08,00,42,17.60
2017,04,08,00,43,14.60
2017,04,08,00,44,10.20
2017,04,08,00,45,15.40
2017,04,08,00,46,11.70
2017,04,08,00,47,8.50
2017,04,08,00,48,10.40
2017,04,08,00,49,18.50
2017,04,08,00,50,11.50
2017,04,08,00,51,11.90
2017,04,08,00,52,8.50
2017,04,08,00,53,9.00
2017,04,08,00,54,14.80
2017,04,08,00,55,7.90
2017,04,08,00,56,17.80
2017,04,08,00,57,17.30
2017,04,08,00,58,16.40
2017,04,08,00,59,14.40
2017,04,08,01,00,9.00
2017,04,08,01,01,9.80
2017,04,08,01,02,10.40
2017,04,08,01,03,8.00
2017,04,08,01,04,12.10
2017,04,08,01,05,10.60
2017,04,08,01,06,10.70
2017,04,08,01,07,9.70
2017,04,08,01,08,8.60
2017,04,08,01,09,11.70
2017,04,08,01,10,8.70
2017,04,08,01,11,7.50
2017,04,08,01,12,6.40
2017,04,08,01,13,6.50
2017,04,08,01,14,5.30
2017,04,08,01,15,7.60
2017,04,08,01,16,7.30
2017,04,08,01,17,8.80
2017,04,08,01,18,13.20
2017,04,08,01,19,14.50
2017,04,08,01,20,14.50
2017,04,08,01,21,14.50
2017,04,08,01,22,14.50
2017,04,08,01,23,11.70
2017,04,08,01,24,9.00
2017,04,08,01,25,7.00
2017,04,08,01,26,6.60
2017,04,08,01,27,5.60
2017,04,08,01,28,6.80
2017,04,08,01,29,6.60
2017,04,08,01,30,8.00
2017,04,08,01,31,7.20
2017,04,08,01,32,9.30
2017,04,08,01,33,7.00
2017,04,08,01,34,8.60
2017,04,08,01,35,7.00
2017,04,08,01,36,7.00
2017,04,08,01,37,6.30
2017,04,08,01,38,8.40
2017,04,08,01,39,11.70
2017,04,08,01,40,13.90
2017,04,08,01,41,11.20
2017,04,08,01,42,11.30
2017,04,08,01,43,12.40
2017,04,08,01,44,14.80
2017,04,08,01,45,9.30
2017,04,08,01,46,9.00
2017,04,08,01,47,12.10
2017,04,08,01,48,9.30
2017,04,08,01,49,9.70
2017,04,08,01,50,12.90
2017,04,08,01,51,13.40
2017,04,08,01,52,13.80
2017,04,08,01,53,11.90
2017,04,08,01,54,11.40
2017,04,08,01,55,13.40
2017,04,08,01,56,14.00
2017,04,08,01,57,15.80
2017,04,08,01,58,8.00
2017,04,08,01,59,14.80
2017,04,08,02,00,14.70
2017,04,08,02,01,8.70
2017,04,08,02,02,15.40
2017,04,08,02,03,12.70
2017,04,08,02,04,13.30
2017,04,08,02,05,12.20
2017,04,08,02,06,12.40
2017,04,08,02,07,9.30
2017,04,08,02,08,8.20
2017,04,08,02,09,12.30
2017,04,08,02,10,13.10
2017,04,08,02,11,13.80
2017,04,08,02,12,11.60
2017,04,08,02,13,13.60
2017,04,08,02,14,11.40
2017,04,08,02,15,11.00
2017,04,08,02,16,14.70
2017,04,08,02,17,8.80
2017,04,08,02,18,4.20
2017,04,08,02,19,11.80
2017,04,08,02,20,7.40
2017,04,08,02,21,7.00
2017,04,08,02,22,10.90
2017,04,08,02,23,13.80
2017,04,08,02,24,9.70
2017,04,08,02,25,12.60
2017,04,08,02,26,9.30
2017,04,08,02,27,9.20
2017,04,08,02,28,11.50
2017,04,08,02,29,7.10
2017,04,08,02,30,9.00
2017,04,08,02,31,10.70
2017,04,08,02,32,5.20
2017,04,08,02,33,8.50
2017,04,08,02,34,9.30
2017,04,08,02,35,7.20
2017,04,08,02,36,8.70
2017,04,08,02,37,6.40
2017,04,08,02,38,4.80
2017,04,08,02,39,8.10
2017,04,08,02,40,11.70
2017,04,08,02,41,6.90
2017,04,08,02,42,3.70
2017,04,08,02,43,10.10
2017,04,08,02,44,9.20
2017,04,08,02,45,7.60
2017,04,08,02,46,7.20
2017,04,08,02,47,8.00
2017,04,08,02,48,9.70
2017,04,08,02,49,6.90
2017,04,08,02,50,6.40
2017,04,08,02,51,5.20
2017,04,08,02,52,5.10
2017,04,08,02,53,7.70
2017,04,08,02,54,8.00
2017,04,08,02,55,3.60
2017,04,08,02,56,8.40
2017,04,08,02,57,10.40
2017,04,08,02,58,7.10
2017,04,08,02,59,8.00
2017,04,08,03,00,7.50
2017,04,08,03,01,10.20
2017,04,08,03,02,7.60
2017,04,08,03,03,6.70
2017,04,08,03,04,9.70
2017,04,08,03,05,6.30
2017,04,08,03,06,9.10
2017,04,08,03,07,11.90
2017,04,08,03,08,8.40
2017,04,08,03,09,12.30
2017,04,08,03,10,10.10
2017,04,08,03,11,9.50
2017,04,08,03,12,6.10
2017,04,08,03,13,5.30
2017,04,08,03,14,6.10
2017,04,08,03,15,7.90
2017,04,08,03,16,7.50
2017,04,08,03,17,9.10
2017,04,08,03,18,9.70
2017,04,08,03,19,10.20
2017,04,08,03,20,5.80
2017,04,08,03,21,6.40
2017,04,08,03,22,8.00
2017,04,08,03,23,6.50
2017,04,08,03,24,7.30
2017,04,08,03,25,6.10
2017,04,08,03,26,5.70
2017,04,08,03,27,8.00
2017,04,08,03,28,8.10
2017,04,08,03,29,7.70
2017,04,08,03,30,6.70
2017,04,08,03,31,6.30
2017,04,08,03,32,6.20
2017,04,08,03,33,5.50
2017,04,08,03,34,5.70
2017,04,08,03,35,5.70
2017,04,08,03,36,6.00
2017,04,08,03,37,8.40
2017,04,08,03,38,10.80
2017,04,08,03,39,7.00
2017,04,08,03,40,8.50
2017,04,08,03,41,8.20
2017,04,08,03,42,6.50
2017,04,08,03,43,9.60
2017,04,08,03,44,7.60
2017,04,08,03,45,6.40
2017,04,08,03,46,8.80
2017,04,08,03,47,8.00
2017,04,08,03,48,7.60
2017,04,08,03,49,11.70
2017,04,08,03,50,13.60
2017,04,08,03,51,8.10
2017,04,08,03,52,13.40
2017,04,08,03,53,7.20
2017,04,08,03,54,7.60
2017,04,08,03,55,11.30
2017,04,08,03,56,11.60
2017,04,08,03,57,6.00
2017,04,08,03,58,5.10
2017,04,08,03,59,4.70
2017,04,08,04,00,5.70
2017,04,08,04,01,6.60
2017,04,08,04,02,11.60
2017,04,08,04,03,7.60
2017,04,08,04,04,4.40
2017,04,08,04,05,8.70
2017,04,08,04,06,5.60
2017,04,08,04,07,5.20
2017,04,08,04,08,6.60
2017,04,08,04,09,5.60
2017,04,08,04,10,4.70
2017,04,08,04,11,4.30
2017,04,08,04,12,2.90
2017,04,08,04,13,3.00
2017,04,08,04,14,4.80
2017,04,08,04,15,6.70
2017,04,08,04,16,6.30
2017,04,08,04,17,7.00
2017,04,08,04,18,6.20
2017,04,08,04,19,6.50
2017,04,08,04,20,5.60
2017,04,08,04,21,5.30
2017,04,08,04,22,6.00
2017,04,08,04,23,6.40
2017,04,08,04,24,8.90
2017,04,08,04,25,6.90
2017,04,08,04,26,3.60
2017,04,08,04,27,6.40
2017,04,08,04,28,4.90
2017,04,08,04,29,5.60
2017,04,08,04,30,6.80
2017,04,08,04,31,5.70
2017,04,08,04,32,7.60
2017,04,08,04,33,6.00
2017,04,08,04,34,6.80
2017,04,08,04,35,3.70
2017,04,08,04,36,5.20
2017,04,08,04,37,6.00
2017,04,08,04,38,5.10
2017,04,08,04,39,6.10
2017,04,08,04,40,4.00
2017,04,08,04,41,4.30
2017,04,08,04,42,5.60
2017,04,08,04,43,5.10
2017,04,08,04,44,4.70
2017,04,08,04,45,5.10
2017,04,08,04,46,5.00
2017,04,08,04,47,5.10
2017,04,08,04,48,4.30
2017,04,08,04,49,5.50
2017,04,08,04,50,6.80
2017,04,08,04,51,6.80
2017,04,08,04,52,8.50
2017,04,08,04,53,9.30
2017,04,08,04,54,9.20
2017,04,08,04,55,8.50
2017,04,08,04,56,10.20
2017,04,08,04,57,7.60
2017,04,08,04,58,9.60
2017,04,08,04,59,8.10
2017,04,08,05,00,10.20
2017,04,08,05,01,5.50
2017,04,08,05,02,5.80
2017,04,08,05,03,7.90
2017,04,08,05,04,5.50
2017,04,08,05,05,5.30
2017,04,08,05,06,3.30
2017,04,08,05,07,3.40
2017,04,08,05,08,4.30
2017,04,08,05,09,4.10
2017,04,08,05,10,3.90
2017,04,08,05,11,6.00
2017,04,08,05,12,3.60
2017,04,08,05,13,3.20
2017,04,08,05,14,1.90
2017,04,08,05,15,2.50
2017,04,08,05,16,3.20
2017,04,08,05,17,2.00
2017,04,08,05,18,3.30
2017,04,08,05,19,4.90
2017,04,08,05,20,3.60
2017,04,08,05,21,3.60
2017,04,08,05,22,3.00
2017,04,08,05,23,3.50
2017,04,08,05,24,2.90
2017,04,08,05,25,3.40
2017,04,08,05,26,2.70
2017,04,08,05,27,3.30
2017,04,08,05,28,4.20
2017,04,08,05,29,5.50
2017,04,08,05,30,4.90
2017,04,08,05,31,4.60
2017,04,08,05,32,6.00
2017,04,08,05,33,5.30
2017,04,08,05,34,5.00
2017,04,08,05,35,8.10
2017,04,08,05,36,5.70
2017,04,08,05,37,9.10
2017,04,08,05,38,7.60
2017,04,08,05,39,8.40
2017,04,08,05,40,9.80
2017,04,08,05,41,9.20
2017,04,08,05,42,8.10
2017,04,08,05,43,6.80
2017,04,08,05,44,8.40
2017,04,08,05,45,7.80
2017,04,08,05,46,8.70
2017,04,08,05,47,5.20
2017,04,08,05,48,7.30
2017,04,08,05,49,8.70
2017,04,08,05,50,5.80
2017,04,08,05,51,6.80
2017,04,08,05,52,6.90
2017,04,08,05,53,6.40
2017,04,08,05,54,10.20
2017,04,08,05,55,10.00
2017,04,08,05,56,6.20
2017,04,08,05,57,5.60
2017,04,08,05,58,5.20
2017,04,08,05,59,4.40
2017,04,08,06,00,4.20
2017,04,08,06,01,3.70
2017,04,08,06,02,2.80
2017,04,08,06,03,4.40
2017,04,08,06,04,2.40
2017,04,08,06,05,1.40
2017,04,08,06,06,0.00
2017,04,08,06,07,3.40
2017,04,08,06,08,2.60
2017,04,08,06,09,3.10
2017,04,08,06,10,4.10
2017,04,08,06,11,3.70
2017,04,08,06,12,1.00
2017,04,08,06,13,3.40
2017,04,08,06,14,5.10
2017,04,08,06,15,6.10
2017,04,08,06,16,5.80
2017,04,08,06,17,3.90
2017,04,08,06,18,6.80
2017,04,08,06,19,6.00
2017,04,08,06,20,9.40
2017,04,08,06,21,4.20
2017,04,08,06,22,3.20
2017,04,08,06,23,4.30
2017,04,08,06,24,5.00
2017,04,08,06,25,3.70
2017,04,08,06,26,4.50
2017,04,08,06,27,3.90
2017,04,08,06,28,2.00
2017,04,08,06,29,3.30
2017,04,08,06,30,4.20
2017,04,08,06,31,4.70
2017,04,08,06,32,2.90
2017,04,08,06,33,1.20
2017,04,08,06,34,1.90
2017,04,08,06,35,0.30
2017,04,08,06,36,0.10
2017,04,08,06,37,0.00
2017,04,08,06,38,1.10
2017,04,08,06,39,0.10
2017,04,08,06,40,2.90
2017,04,08,06,41,3.20
2017,04,08,06,42,2.60
2017,04,08,06,43,2.70
2017,04,08,06,44,0.90
2017,04,08,06,45,0.00
2017,04,08,06,46,1.00
2017,04,08,06,47,2.90
2017,04,08,06,48,4.30
2017,04,08,06,49,3.60
2017,04,08,06,50,4.20
2017,04,08,06,51,2.90
2017,04,08,06,52,3.90
2017,04,08,06,53,2.30
2017,04,08,06,54,3.50
2017,04,08,06,55,3.10
2017,04,08,06,56,3.00
2017,04,08,06,57,3.10
2017,04,08,06,58,3.60
2017,04,08,06,59,4.00
2017,04,08,07,00,4.30
2017,04,08,07,01,2.60
2017,04,08,07,02,3.20
2017,04,08,07,03,2.50
2017,04,08,07,04,3.50
2017,04,08,07,05,2.70
2017,04,08,07,06,2.50
2017,04,08,07,07,2.00
2017,04,08,07,08,3.00
2017,04,08,07,09,2.80
2017,04,08,07,10,2.30
2017,04,08,07,11,3.00
2017,04,08,07,12,2.50
2017,04,08,07,13,2.00
2017,04,08,07,14,1.80
2017,04,08,07,15,1.70
2017,04,08,07,16,1.80
2017,04,08,07,17,2.40
2017,04,08,07,18,3.10
2017,04,08,07,19,2.70
2017,04,08,07,20,2.30
2017,04,08,07,21,1.80
2017,04,08,07,22,1.90
2017,04,08,07,23,0.10
2017,04,08,07,24,0.00
2017,04,08,07,25,0.00
2017,04,08,07,26,2.20
2017,04,08,07,27,2.30
2017,04,08,07,28,2.70
2017,04,08,07,29,3.50
2017,04,08,07,30,2.60
2017,04,08,07,31,2.30
2017,04,08,07,32,1.60
2017,04,08,07,33,1.90
2017,04,08,07,34,4.50
2017,04,08,07,35,3.00
2017,04,08,07,36,2.60
2017,04,08,07,37,3.80
2017,04,08,07,38,3.80
2017,04,08,07,39,3.50
2017,04,08,07,40,4.70
2017,04,08,07,41,3.60
2017,04,08,07,42,4.20
2017,04,08,07,43,3.90
2017,04,08,07,44,2.50
2017,04,08,07,45,3.50
2017,04,08,07,46,3.80
2017,04,08,07,47,3.80
2017,04,08,07,48,1.90
2017,04,08,07,49,1.90
2017,04,08,07,50,2.60
2017,04,08,07,51,2.60
2017,04,08,07,52,2.10
2017,04,08,07,53,2.60
2017,04,08,07,54,1.90
2017,04,08,07,55,1.50
2017,04,08,07,56,2.20
2017,04,08,07,57,1.10
2017,04,08,07,58,0.30
2017,04,08,07,59,3.90
2017,04,08,08,00,2.40
2017,04,08,08,01,1.50
2017,04,08,08,02,1.80
2017,04,08,08,03,3.00
2017,04,08,08,04,1.90
2017,04,08,08,05,2.40
2017,04,08,08,06,1.00
2017,04,08,08,07,1.50
2017,04,08,08,08,1.10
2017,04,08,08,09,1.30
2017,04,08,08,10,1.50
2017,04,08,08,11,1.40
2017,04,08,08,12,1.40
2017,04,08,08,13,3.70
2017,04,08,08,14,3.70
2017,04,08,08,15,1.60
2017,04,08,08,16,3.30
2017,04,08,08,17,3.60
2017,04,08,08,18,2.20
2017,04,08,08,19,2.40
2017,04,08,08,20,2.40
2017,04,08,08,21,3.10
2017,04,08,08,22,2.30
2017,04,08,08,23,1.30
2017,04,08,08,24,0.00
2017,04,08,08,25,1.10
2017,04,08,08,26,5.00
2017,04,08,08,27,2.20
2017,04,08,08,28,1.90
2017,04,08,08,29,2.50
2017,04,08,08,30,1.20
2017,04,08,08,31,1.50
2017,04,08,08,32,0.00
2017,04,08,08,33,0.00
2017,04,08,08,34,0.00
2017,04,08,08,35,0.00
2017,04,08,08,36,0.00
2017,04,08,08,37,0.00
2017,04,08,08,38,1.20
2017,04,08,08,39,3.40
2017,04,08,08,40,3.10
2017,04,08,08,41,3.00
2017,04,08,08,42,3.70
2017,04,08,08,43,3.90
2017,04,08,08,44,4.50
2017,04,08,08,45,5.10
2017,04,08,08,46,5.20
2017,04,08,08,47,1.80
2017,04,08,08,48,4.10
2017,04,08,08,49,5.80
2017,04,08,08,50,1.30
2017,04,08,08,51,0.50
2017,04,08,08,52,2.10
2017,04,08,08,53,1.90
2017,04,08,08,54,3.40
2017,04,08,08,55,3.00
2017,04,08,08,56,1.20
2017,04,08,08,57,0.00
2017,04,08,08,58,0.00
2017,04,08,08,59,0.00
2017,04,08,09,00,0.00
2017,04,08,09,01,1.70
2017,04,08,09,02,2.40
2017,04,08,09,03,4.00
2017,04,08,09,04,2.40
2017,04,08,09,05,2.40
2017,04,08,09,06,2.40
2017,04,08,09,07,2.50
2017,04,08,09,08,3.00
2017,04,08,09,09,4.20
2017,04,08,09,10,0.80
2017,04,08,09,11,2.40
2017,04,08,09,12,3.30
2017,04,08,09,13,4.30
2017,04,08,09,14,3.50
2017,04,08,09,15,4.30
2017,04,08,09,16,3.90
2017,04,08,09,17,4.30
2017,04,08,09,18,4.60
2017,04,08,09,19,4.00
2017,04,08,09,20,4.40
2017,04,08,09,21,4.80
2017,04,08,09,22,6.50
2017,04,08,09,23,4.90
2017,04,08,09,24,3.60
2017,04,08,09,25,3.90
2017,04,08,09,26,3.50
2017,04,08,09,27,5.40
2017,04,08,09,28,6.00
2017,04,08,09,29,2.90
2017,04,08,09,30,3.40
2017,04,08,09,31,3.40
2017,04,08,09,32,2.20
2017,04,08,09,33,3.60
2017,04,08,09,34,3.00
2017,04,08,09,35,2.70
2017,04,08,09,36,2.40
2017,04,08,09,37,2.70
2017,04,08,09,38,3.00
2017,04,08,09,39,1.60
2017,04,08,09,40,0.00
2017,04,08,09,41,0.00
2017,04,08,09,42,0.00
2017,04,08,09,43,5.90
2017,04,08,09,44,6.40
2017,04,08,09,45,5.80
2017,04,08,09,46,3.30
2017,04,08,09,47,2.60
2017,04,08,09,48,0.00
2017,04,08,09,49,1.50
2017,04,08,09,50,3.00
2017,04,08,09,51,3.70
2017,04,08,09,52,2.60
2017,04,08,09,53,1.70
2017,04,08,09,54,3.10
2017,04,08,09,55,5.80
2017,04,08,09,56,5.60
2017,04,08,09,57,6.40
2017,04,08,09,58,5.60
2017,04,08,09,59,6.00
2017,04,08,10,00,6.40
2017,04,08,10,01,5.90
2017,04,08,10,02,4.70
2017,04,08,10,03,7.80
2017,04,08,10,04,6.00
2017,04,08,10,05,9.30
2017,04,08,10,06,7.10
2017,04,08,10,07,5.50
2017,04,08,10,08,8.00
2017,04,08,10,09,7.60
2017,04,08,10,10,8.90
2017,04,08,10,11,8.10
2017,04,08,10,12,6.00
2017,04,08,10,13,6.40
2017,04,08,10,14,8.00
2017,04,08,10,15,6.80
2017,04,08,10,16,10.40
2017,04,08,10,17,7.90
2017,04,08,10,18,10.20
2017,04,08,10,19,8.50
2017,04,08,10,20,6.80
2017,04,08,10,21,7.30
2017,04,08,10,22,6.50
2017,04,08,10,23,7.60
2017,04,08,10,24,8.40
2017,04,08,10,25,6.80
2017,04,08,10,26,7.50
2017,04,08,10,27,8.20
2017,04,08,10,28,8.00
2017,04,08,10,29,5.50
2017,04,08,10,30,9.70
2017,04,08,10,31,6.90
2017,04,08,10,32,7.30
2017,04,08,10,33,10.90
2017,04,08,10,34,7.00
2017,04,08,10,35,7.00
2017,04,08,10,36,6.70
2017,04,08,10,37,9.90
2017,04,08,10,38,11.40
2017,04,08,10,39,9.70
2017,04,08,10,40,10.30
2017,04,08,10,41,9.60
2017,04,08,10,42,12.70
2017,04,08,10,43,8.70
2017,04,08,10,44,9.80
2017,04,08,10,45,6.60
2017,04,08,10,46,7.30
2017,04,08,10,47,6.40
2017,04,08,10,48,7.60
2017,04,08,10,49,8.30
2017,04,08,10,50,9.30
2017,04,08,10,51,6.80
2017,04,08,10,52,5.30
2017,04,08,10,53,8.10
2017,04,08,10,54,7.50
2017,04,08,10,55,8.50
2017,04,08,10,56,8.70
2017,04,08,10,57,12.20
2017,04,08,10,58,14.20
2017,04,08,10,59,14.50
2017,04,08,11,00,8.70
2017,04,08,11,01,11.00
2017,04,08,11,02,7.40
2017,04,08,11,03,8.40
2017,04,08,11,04,8.90
2017,04,08,11,05,12.80
2017,04,08,11,06,7.60
2017,04,08,11,07,8.90
2017,04,08,11,08,9.60
2017,04,08,11,09,8.50
2017,04,08,11,10,13.40
2017,04,08,11,11,10.30
2017,04,08,11,12,11.70
2017,04,08,11,13,8.10
2017,04,08,11,14,10.90
2017,04,08,11,15,9.40
2017,04,08,11,16,6.80
2017,04,08,11,17,9.40
2017,04,08,11,18,10.50
2017,04,08,11,19,11.60
2017,04,08,11,20,13.00
2017,04,08,11,21,14.50
2017,04,08,11,22,11.50
2017,04,08,11,23,10.00
2017,04,08,11,24,13.40
2017,04,08,11,25,10.40
2017,04,08,11,26,16.50
2017,04,08,11,27,11.70
2017,04,08,11,28,14.10
2017,04,08,11,29,14.90
2017,04,08,11,30,15.40
2017,04,08,11,31,11.70
2017,04,08,11,32,8.40
2017,04,08,11,33,6.80
2017,04,08,11,34,7.20
2017,04,08,11,35,10.30
2017,04,08,11,36,14.00
2017,04,08,11,37,8.90
2017,04,08,11,38,11.40
2017,04,08,11,39,11.50
2017,04,08,11,40,12.30
2017,04,08,11,41,10.20
2017,04,08,11,42,9.90
2017,04,08,11,43,12.30
2017,04,08,11,44,10.50
2017,04,08,11,45,9.60
2017,04,08,11,46,9.10
2017,04,08,11,47,8.30
2017,04,08,11,48,9.60
2017,04,08,11,49,8.90
2017,04,08,11,50,7.60
2017,04,08,11,51,8.00
2017,04,08,11,52,8.10
2017,04,08,11,53,11.20
2017,04,08,11,54,11.80
2017,04,08,11,55,7.50
2017,04,08,11,56,8.20
2017,04,08,11,57,9.30
2017,04,08,11,58,11.40
2017,04,08,11,59,9.60
2017,04,08,12,00,6.60
2017,04,08,12,01,6.40
2017,04,08,12,02,9.70
2017,04,08,12,03,10.10
2017,04,08,12,04,10.00
2017,04,08,12,05,9.70
2017,04,08,12,06,7.30
2017,04,08,12,07,6.90
2017,04,08,12,08,7.70
2017,04,08,12,09,10.40
2017,04,08,12,10,14.90
2017,04,08,12,11,13.30
2017,04,08,12,12,14.60
2017,04,08,12,13,13.40
2017,04,08,12,14,7.70
2017,04,08,12,15,8.90
2017,04,08,12,16,14.00
2017,04,08,12,17,7.40
2017,04,08,12,18,6.30
2017,04,08,12,19,7.90
2017,04,08,12,20,9.90
2017,04,08,12,21,10.20
2017,04,08,12,22,6.00
2017,04,08,12,23,7.30
2017,04,08,12,24,5.30
2017,04,08,12,25,6.10
2017,04,08,12,26,8.50
2017,04,08,12,27,7.10
2017,04,08,12,28,5.70
2017,04,08,12,29,10.70
2017,04,08,12,30,11.70
2017,04,08,12,31,7.30
2017,04,08,12,32,8.30
2017,04,08,12,33,6.90
2017,04,08,12,34,6.40
2017,04,08,12,35,6.30
2017,04,08,12,36,6.80
2017,04,08,12,37,8.00
2017,04,08,12,38,6.80
2017,04,08,12,39,9.90
2017,04,08,12,40,6.30
2017,04,08,12,41,6.40
2017,04,08,12,42,7.00
2017,04,08,12,43,6.40
2017,04,08,12,44,7.40
2017,04,08,12,45,6.70
2017,04,08,12,46,6.40
2017,04,08,12,47,7.60
2017,04,08,12,48,7.50
2017,04,08,12,49,9.40
2017,04,08,12,50,7.90
2017,04,08,12,51,11.30
2017,04,08,12,52,8.60
2017,04,08,12,53,7.40
2017,04,08,12,54,7.30
2017,04,08,12,55,8.80
2017,04,08,12,56,6.00
2017,04,08,12,57,7.10
2017,04,08,12,58,5.30
2017,04,08,12,59,6.50
2017,04,08,13,00,6.60
2017,04,08,13,01,8.60
2017,04,08,13,02,11.40
2017,04,08,13,03,10.00
2017,04,08,13,04,13.50
2017,04,08,13,05,12.70
2017,04,08,13,06,11.10
2017,04,08,13,07,13.20
2017,04,08,13,08,10.90
2017,04,08,13,09,7.40
2017,04,08,13,10,8.70
2017,04,08,13,11,13.90
2017,04,08,13,12,12.70
2017,04,08,13,13,13.90
2017,04,08,13,14,17.70
2017,04,08,13,15,13.50
2017,04,08,13,16,13.60
2017,04,08,13,17,13.40
2017,04,08,13,18,14.90
2017,04,08,13,19,13.60
2017,04,08,13,20,16.90
2017,04,08,13,21,18.00
2017,04,08,13,22,15.40
2017,04,08,13,23,14.30
2017,04,08,13,24,16.30
2017,04,08,13,25,14.60
2017,04,08,13,26,19.90
2017,04,08,13,27,16.10
2017,04,08,13,28,12.70
2017,04,08,13,29,9.70
2017,04,08,13,30,10.50
2017,04,08,13,31,9.20
2017,04,08,13,32,10.50
2017,04,08,13,33,16.80
2017,04,08,13,34,14.50
2017,04,08,13,35,17.30
2017,04,08,13,36,15.70
2017,04,08,13,37,11.00
2017,04,08,13,38,15.70
2017,04,08,13,39,17.20
2017,04,08,13,40,17.50
2017,04,08,13,41,14.80
2017,04,08,13,42,14.60
2017,04,08,13,43,15.20
2017,04,08,13,44,8.70
2017,04,08,13,45,13.50
2017,04,08,13,46,11.00
2017,04,08,13,47,16.10
2017,04,08,13,48,14.70
2017,04,08,13,49,12.70
2017,04,08,13,50,15.70
2017,04,08,13,51,16.20
2017,04,08,13,52,11.80
2017,04,08,13,53,11.20
2017,04,08,13,54,11.30
2017,04,08,13,55,15.80
2017,04,08,13,56,11.20
2017,04,08,13,57,11.30
2017,04,08,13,58,15.20
2017,04,08,13,59,14.20
2017,04,08,14,00,10.10
2017,04,08,14,01,8.60
2017,04,08,14,02,13.80
2017,04,08,14,03,17.50
2017,04,08,14,04,19.80
2017,04,08,14,05,15.40
2017,04,08,14,06,17.30
2017,04,08,14,07,16.00
2017,04,08,14,08,15.10
2017,04,08,14,09,15.90
2017,04,08,14,10,12.60
2017,04,08,14,11,10.90
2017,04,08,14,12,10.50
2017,04,08,14,13,7.20
2017,04,08,14,14,8.20
2017,04,08,14,15,10.50
2017,04,08,14,16,14.30
2017,04,08,14,17,10.50
2017,04,08,14,18,17.60
2017,04,08,14,19,15.60
2017,04,08,14,20,11.90
2017,04,08,14,21,7.30
2017,04,08,14,22,6.10
2017,04,08,14,23,8.80
2017,04,08,14,24,7.50
2017,04,08,14,25,8.60
2017,04,08,14,26,7.10
2017,04,08,14,27,5.80
2017,04,08,14,28,8.50
2017,04,08,14,29,7.60
2017,04,08,14,30,4.00
2017,04,08,14,31,5.60
2017,04,08,14,32,7.60
2017,04,08,14,33,9.00
2017,04,08,14,34,4.90
2017,04,08,14,35,8.90
2017,04,08,14,36,5.10
2017,04,08,14,37,3.90
2017,04,08,14,38,6.40
2017,04,08,14,39,5.10
2017,04,08,14,40,5.20
2017,04,08,14,41,7.80
2017,04,08,14,42,6.40
2017,04,08,14,43,6.40
2017,04,08,14,44,7.50
2017,04,08,14,45,9.40
2017,04,08,14,46,7.60
2017,04,08,14,47,8.80
2017,04,08,14,48,11.00
2017,04,08,14,49,13.10
2017,04,08,14,50,9.80
2017,04,08,14,51,9.00
2017,04,08,14,52,10.50
2017,04,08,14,53,13.80
2017,04,08,14,54,13.00
2017,04,08,14,55,13.30
2017,04,08,14,56,11.60
2017,04,08,14,57,12.50
2017,04,08,14,58,13.40
2017,04,08,14,59,9.70
2017,04,08,15,00,15.20
2017,04,08,15,01,6.20
2017,04,08,15,02,16.50
2017,04,08,15,03,12.30
2017,04,08,15,04,14.50
2017,04,08,15,05,16.40
2017,04,08,15,06,16.40
2017,04,08,15,07,16.30
2017,04,08,15,08,20.10
2017,04,08,15,09,14.70
2017,04,08,15,10,20.50
2017,04,08,15,11,15.20
2017,04,08,15,12,17.10
2017,04,08,15,13,10.30
2017,04,08,15,14,13.80
2017,04,08,15,15,13.50
2017,04,08,15,16,15.50
2017,04,08,15,17,13.80
2017,04,08,15,18,17.90
2017,04,08,15,19,14.60
2017,04,08,15,20,15.90
2017,04,08,15,21,7.50
2017,04,08,15,22,12.20
2017,04,08,15,23,10.90
2017,04,08,15,24,10.00
2017,04,08,15,25,7.90
2017,04,08,15,26,7.90
2017,04,08,15,27,8.60
2017,04,08,15,28,10.10
2017,04,08,15,29,14.60
2017,04,08,15,30,13.40
2017,04,08,15,31,16.10
2017,04,08,15,32,17.80
2017,04,08,15,33,17.20
2017,04,08,15,34,14.90
2017,04,08,15,35,12.40
2017,04,08,15,36,10.30
2017,04,08,15,37,13.60
2017,04,08,15,38,13.80
2017,04,08,15,39,15.50
2017,04,08,15,40,14.70
2017,04,08,15,41,11.20
2017,04,08,15,42,16.70
2017,04,08,15,43,15.30
2017,04,08,15,44,10.80
2017,04,08,15,45,16.30
2017,04,08,15,46,20.00
2017,04,08,15,47,16.00
2017,04,08,15,48,8.40
2017,04,08,15,49,10.20
2017,04,08,15,50,10.50
2017,04,08,15,51,14.00
2017,04,08,15,52,14.10
2017,04,08,15,53,19.60
2017,04,08,15,54,18.80
2017,04,08,15,55,19.70
2017,04,08,15,56,15.60
2017,04,08,15,57,16.40
2017,04,08,15,58,13.00
2017,04,08,15,59,15.60
2017,04,08,16,00,14.60
2017,04,08,16,01,16.60
2017,04,08,16,02,17.80
2017,04,08,16,03,17.10
2017,04,08,16,04,15.00
2017,04,08,16,05,20.40
2017,04,08,16,06,14.60
2017,04,08,16,07,10.90
2017,04,08,16,08,17.30
2017,04,08,16,09,15.50
2017,04,08,16,10,17.10
2017,04,08,16,11,21.20
2017,04,08,16,12,19.40
2017,04,08,16,13,17.90
2017,04,08,16,14,18.20
2017,04,08,16,15,12.70
2017,04,08,16,16,16.90
2017,04,08,16,17,14.20
2017,04,08,16,18,16.00
2017,04,08,16,19,15.00
2017,04,08,16,20,17.70
2017,04,08,16,21,18.40
2017,04,08,16,22,21.50
2017,04,08,16,23,22.50
2017,04,08,16,24,20.20
2017,04,08,16,25,23.30
2017,04,08,16,26,19.40
2017,04,08,16,27,19.90
2017,04,08,16,28,16.30
2017,04,08,16,29,19.90
2017,04,08,16,30,19.20
2017,04,08,16,31,19.20
2017,04,08,16,32,18.70
2017,04,08,16,33,18.30
2017,04,08,16,34,18.40
2017,04,08,16,35,17.10
2017,04,08,16,36,17.10
2017,04,08,16,37,15.40
2017,04,08,16,38,14.20
2017,04,08,16,39,13.90
2017,04,08,16,40,17.50
2017,04,08,16,41,20.80
2017,04,08,16,42,14.10
2017,04,08,16,43,12.60
2017,04,08,16,44,16.30
2017,04,08,16,45,18.50
2017,04,08,16,46,18.10
2017,04,08,16,47,13.00
2017,04,08,16,48,19.00
2017,04,08,16,49,13.10
2017,04,08,16,50,16.60
2017,04,08,16,51,8.90
2017,04,08,16,52,19.20
2017,04,08,16,53,15.80
2017,04,08,16,54,15.90
2017,04,08,16,55,14.00
2017,04,08,16,56,8.30
2017,04,08,16,57,10.90
2017,04,08,16,58,11.90
2017,04,08,16,59,20.80
2017,04,08,17,00,15.80
2017,04,08,17,01,18.60
2017,04,08,17,02,14.50
2017,04,08,17,03,10.20
2017,04,08,17,04,8.50
2017,04,08,17,05,12.20
2017,04,08,17,06,9.30
2017,04,08,17,07,8.00
2017,04,08,17,08,8.80
2017,04,08,17,09,9.60
2017,04,08,17,10,10.10
2017,04,08,17,11,8.20
2017,04,08,17,12,14.20
2017,04,08,17,13,11.00
2017,04,08,17,14,14.70
2017,04,08,17,15,9.80
2017,04,08,17,16,5.60
2017,04,08,17,17,8.60
2017,04,08,17,18,10.60
2017,04,08,17,19,11.40
2017,04,08,17,20,8.80
2017,04,08,17,21,8.50
2017,04,08,17,22,11.70
2017,04,08,17,23,6.40
2017,04,08,17,24,8.30
2017,04,08,17,25,12.00
2017,04,08,17,26,12.50
2017,04,08,17,27,10.50
2017,04,08,17,28,14.40
2017,04,08,17,29,8.30
2017,04,08,17,30,12.90
2017,04,08,17,31,6.30
2017,04,08,17,32,7.70
2017,04,08,17,33,8.70
2017,04,08,17,34,12.80
2017,04,08,17,35,13.00
2017,04,08,17,36,9.30
2017,04,08,17,37,14.80
2017,04,08,17,38,14.40
2017,04,08,17,39,10.50
2017,04,08,17,40,10.20
2017,04,08,17,41,17.00
2017,04,08,17,42,14.80
2017,04,08,17,43,12.30
2017,04,08,17,44,11.30
2017,04,08,17,45,19.70
2017,04,08,17,46,20.50
2017,04,08,17,47,16.10
2017,04,08,17,48,14.80